Bookmark and Share
Track history (hours):
 

Anna Noli

Last reported at 2014-Apr-19 01:33 UTC. Time now 2014-Apr-19 02:06 UTC.
Position N 44°18' E 008°29'.

Length 32 m.

Type: Tug. MMSI: 247046500.

NotesDate/timePositionNaut miles runAvg speedWind from/ knotsBaromVisibWave heightAir tempDewpointWater temp
2014-Apr-19 01:33N 44°18' E 008°29'0 0.0
2014-Apr-19 00:33N 44°18' E 008°29'0 0.0
2014-Apr-18 23:33N 44°18' E 008°29'0 0.0
2014-Apr-18 22:33N 44°18' E 008°29'0 0.0
2014-Apr-18 21:33N 44°18' E 008°29'0 0.0
2014-Apr-18 20:33N 44°18' E 008°29'0 0.0
2014-Apr-18 19:33N 44°18' E 008°29'0 0.0
2014-Apr-18 18:33N 44°18' E 008°29'0 0.0
2014-Apr-18 17:33N 44°18' E 008°29'0 0.4
2014-Apr-18 16:29N 44°19' E 008°30'0 0.4
2014-Apr-18 15:31N 44°18' E 008°29'0 0.0
2014-Apr-18 14:31N 44°18' E 008°29'0 0.0
2014-Apr-18 13:31N 44°18' E 008°29'3 3.3
2014-Apr-18 12:32N 44°16' E 008°27'0 0.0
2014-Apr-18 11:32N 44°16' E 008°27'0 0.0
2014-Apr-18 10:32N 44°16' E 008°27'0 0.0
2014-Apr-18 09:32N 44°16' E 008°27'0 0.0
2014-Apr-18 08:32N 44°16' E 008°27'0 0.0
2014-Apr-18 07:32N 44°16' E 008°27'1 1.2
2014-Apr-18 06:32N 44°17' E 008°28'0 0.3
2014-Apr-18 05:32N 44°17' E 008°28'3 3.0
2014-Apr-18 04:33N 44°19' E 008°30'1 0.6
2014-Apr-18 03:31N 44°18' E 008°29'0 0.0
2014-Apr-18 02:28N 44°18' E 008°29'0 0.0
2014-Apr-18 01:28N 44°18' E 008°29'0 0.0
2014-Apr-18 00:28N 44°18' E 008°29'0 0.0
2014-Apr-17 23:28N 44°18' E 008°29'0 0.0
2014-Apr-17 22:28N 44°18' E 008°29'0 0.0
2014-Apr-17 21:28N 44°18' E 008°29'0 0.0
2014-Apr-17 20:28N 44°18' E 008°29'0 0.0
2014-Apr-17 19:31N 44°18' E 008°29'0 0.0
2014-Apr-17 18:28N 44°18' E 008°29'0 0.0
2014-Apr-17 17:28N 44°18' E 008°29'0 0.0
2014-Apr-17 16:28N 44°18' E 008°29'0 0.0
2014-Apr-17 15:28N 44°18' E 008°29'0 0.0
2014-Apr-17 14:28N 44°18' E 008°29'0 0.0
2014-Apr-17 13:13N 44°18' E 008°29'1 0.2
2014-Apr-17 08:23N 44°19' E 008°30'1 0.2
2014-Apr-17 05:19N 44°18' E 008°29'0 0.0
2014-Apr-17 04:19N 44°18' E 008°29'0 0.0
2014-Apr-17 03:25N 44°18' E 008°29'0 0.0
2014-Apr-17 02:31N 44°18' E 008°29'0 0.0
2014-Apr-17 01:31N 44°18' E 008°29'0 0.0
2014-Apr-17 00:31N 44°18' E 008°29'0 0.0
2014-Apr-16 20:07N 44°18' E 008°29'0 0.0
2014-Apr-16 19:19N 44°18' E 008°29'0 0.0
2014-Apr-16 18:13N 44°18' E 008°29'0 0.0
2014-Apr-16 16:16N 44°18' E 008°29'0 0.0
2014-Apr-16 15:25N 44°18' E 008°29'0 0.0
2014-Apr-16 14:28N 44°18' E 008°29'0 0.0
2014-Apr-16 11:28N 44°18' E 008°29'0 0.2
2014-Apr-16 08:32N 44°19' E 008°30'0 0.5
2014-Apr-16 07:32N 44°18' E 008°29'0 0.0
2014-Apr-16 05:17N 44°18' E 008°29'0 0.3
2014-Apr-16 04:20N 44°19' E 008°30'0 0.4
2014-Apr-16 03:33N 44°18' E 008°29'0 0.0
2014-Apr-16 02:33N 44°18' E 008°29'0 0.0
2014-Apr-16 01:24N 44°18' E 008°29'0 0.0
2014-Apr-16 00:27N 44°18' E 008°29'0 0.0
2014-Apr-15 23:33N 44°18' E 008°29'0 0.0
2014-Apr-15 19:27N 44°18' E 008°29'0 0.0
2014-Apr-15 15:33N 44°18' E 008°29'0 0.0
2014-Apr-15 10:31N 44°18' E 008°29'0 0.0
2014-Apr-15 05:33N 44°18' E 008°29'0 0.0
2014-Apr-15 01:32N 44°18' E 008°29'0 0.0
2014-Apr-15 00:32N 44°18' E 008°29'0 0.0
2014-Apr-14 22:32N 44°18' E 008°29'0 0.0
2014-Apr-14 18:32N 44°18' E 008°29'0 0.0
2014-Apr-14 08:33N 44°19' E 008°30'0 0.0
2014-Apr-13 15:33N 44°18' E 008°29'0 0.0
2014-Apr-13 11:30N 44°18' E 008°29'0 0.0
2014-Apr-13 07:30N 44°18' E 008°29'0 0.0
2014-Apr-13 03:33N 44°18' E 008°29'0 0.0
2014-Apr-13 02:30N 44°18' E 008°29'0 0.0
2014-Apr-13 01:33N 44°18' E 008°29'0 0.0
2014-Apr-13 00:03N 44°18' E 008°29'0 0.0
2014-Apr-12 23:33N 44°18' E 008°29'0 0.1
2014-Apr-12 17:32N 44°19' E 008°30'0 0.2
2014-Apr-12 15:23N 44°18' E 008°29'0 0.0
2014-Apr-12 07:29N 44°18' E 008°29'0 0.0
2014-Apr-12 03:32N 44°18' E 008°29'0 0.0
2014-Apr-12 02:32N 44°18' E 008°29'0 0.0
2014-Apr-12 01:29N 44°18' E 008°29'0 0.0
2014-Apr-12 00:26N 44°18' E 008°29'0 0.0
2014-Apr-11 23:32N 44°18' E 008°29'0 0.0
2014-Apr-11 20:05N 44°18' E 008°29'0 0.0
2014-Apr-11 15:26N 44°18' E 008°29'0 0.3
2014-Apr-11 14:26N 44°19' E 008°29'1 0.9
2014-Apr-11 13:14N 44°18' E 008°29'1 1.0
2014-Apr-11 12:25N 44°17' E 008°29'2 1.6
2014-Apr-11 11:29N 44°18' E 008°29'1 0.2
2014-Apr-11 07:27N 44°19' E 008°30'1 0.2
2014-Apr-11 04:10N 44°18' E 008°29'0 0.0
2014-Apr-11 03:31N 44°18' E 008°29'0 0.0
2014-Apr-11 02:28N 44°18' E 008°29'0 0.0
2014-Apr-11 01:31N 44°18' E 008°29'0 0.0
2014-Apr-11 00:16N 44°18' E 008°29'0 0.0
2014-Apr-10 23:16N 44°18' E 008°29'0 0.0
2014-Apr-10 19:19N 44°18' E 008°29'0 0.0
2014-Apr-10 15:22N 44°18' E 008°29'0 0.0
2014-Apr-10 08:28N 44°18' E 008°29'0 0.0
2014-Apr-10 07:31N 44°18' E 008°29'0 0.0
2014-Apr-10 04:04N 44°18' E 008°29'0 0.0
2014-Apr-10 03:28N 44°18' E 008°29'0 0.0
2014-Apr-10 02:31N 44°18' E 008°29'0 0.0
2014-Apr-10 01:28N 44°18' E 008°29'0 0.0
2014-Apr-10 00:31N 44°18' E 008°29'0 0.0
2014-Apr-09 23:31N 44°18' E 008°29'0 0.0
2014-Apr-09 22:25N 44°18' E 008°29'0 0.0
2014-Apr-09 21:31N 44°18' E 008°29'0 0.0
2014-Apr-09 20:31N 44°18' E 008°29'0 0.0
2014-Apr-09 19:31N 44°18' E 008°29'0 0.0
2014-Apr-09 18:19N 44°18' E 008°29'2 1.0
2014-Apr-09 16:04N 44°17' E 008°28'1 1.9
2014-Apr-09 15:32N 44°16' E 008°27'0 0.0
2014-Apr-09 14:26N 44°16' E 008°27'0 0.0
2014-Apr-09 11:29N 44°16' E 008°27'0 0.0
2014-Apr-09 08:06N 44°16' E 008°27'1 1.6
2014-Apr-09 07:23N 44°17' E 008°28'1 0.7
2014-Apr-09 05:32N 44°17' E 008°29'1 0.9
2014-Apr-09 04:19N 44°18' E 008°29'0 0.0
2014-Apr-09 03:31N 44°18' E 008°29'0 0.0
2014-Apr-09 02:31N 44°18' E 008°29'  

Dump ship's entire track history

sailing weather and tide predictions

Anna Noli — IZEL — position and weather